Regional Weather Roundup
Issued by NWS

Home | Current Version | Previous Version | Graphics & Text | Print | Product List | Glossary On
Versions: 1 2 3 4 5 6 7 8 9 10 11 12 13 14 15 16 17 18 19 20 21 22 23 24 25 26 27 28 29 30 31 32 33 34 35 36 37 38 39 40 41 42 43 44 45 46 47 48 49 50
000
ASUS43 KLOT 201308
RWRIL

ILLINOIS REGIONAL WEATHER ROUNDUP
NATIONAL WEATHER SERVICE CHICAGO/ROMEOVILLE IL
700 AM CST MON FEB 20 2017

NOTE: "FAIR" INDICATES FEW OR NO CLOUDS BELOW 12,000 FEET WITH NO
SIGNIFICANT WEATHER AND/OR OBSTRUCTIONS TO VISIBILITY.

* THESE STATIONS ARE NOT UNDER NWS QUALITY CONTROL. THEY ALSO MAY NOT
  REPORT WEATHER SUCH AS PRECIPITATION OR FOG.

ILZ001-002-007-009-015-016-024-201400-
NORTHWEST ILLINOIS

CITY           SKY/WX    TMP DP  RH WIND       PRES   REMARKS
MOLINE         CLOUDY    52  49  89 SE9       30.00F FOG
STERLING*      CLOUDY    45  44  97 E8        30.06S FOG
SAVANNA*       CLOUDY    48  47  95 SE8       30.04R FOG
$$

ILZ003-004-008-010-011-017-018-201400-
NORTH CENTRAL ILLINOIS

CITY           SKY/WX    TMP DP  RH WIND       PRES   REMARKS
ROCKFORD       CLOUDY    46  43  89 SE13      30.09F FOG
FREEPORT*      CLOUDY    42  41  97 SE8       30.08S FOG
ROCHELLE*        N/A     43  42  99 SE12      30.09S FOG
DE KALB*       FOG       42  41  97 E7        30.11S VSB 1/2
PERU*          FOG       41  41  97 SE9       30.10R VSB 1/4
$$

ILZ005-006-012>014-019>023-201400-
NORTHEAST ILLINOIS

CITY           SKY/WX    TMP DP  RH WIND       PRES   REMARKS
CHICAGO-OHARE  CLOUDY    44  42  93 SE8       30.13R FOG
CHICAGO-MIDWAY MOCLDY    49  43  80 SE8       30.14R FOG
AURORA         PTCLDY    45  43  93 SE8       30.12R FOG
LANSING*       PTCLDY    44  44 100 SE6       30.15S FOG
JOLIET*        CLOUDY    46  46  97 SE6       30.14R FOG
WAUKEGAN       MOCLDY    43  40  89 SE6       30.13R
DUPAGE AIRPORT PTCLDY    45  42  89 SE6       30.12R FOG
KANKAKEE*      FOG       42  42  98 CALM      30.15S VSB 1/2
WHEELING       MOCLDY    40  38  93 CALM      30.14S FOG
MORRIS*        FOG       45  44  97 CALM      30.11R VSB 1/2
ROMEOVILLE*      N/A     45  45 100 S9        30.13R FOG
NORTHERLY ISL    N/A     39  36  89 CALM        N/A
$$

LMZ740>746-201400-
SOUTHERN LAKE MICHIGAN

STATION/POSITION SKY/WX   TEMP    WIND        PRES    VSBY  WAVE
                          AIR SEA DIR/SP/G                  HT/PER
                          (F)     (DEG/KT/KT) (MB)    (MI)  (FT/S)
HARRISON CRIB              42     150/  9/  9   N/A
BURNHAM HARBOR             39      CALM  /  3   N/A
CALUMET HARBOR             46     140/  2/  4 1020.1R
BURNS HARBOR               48     150/  6/ 10 1021.7R
MICHIGAN CITY              46     120/  6/  8   N/A
$$

ILZ025>027-034>036-040-047-049-050-058-095>099-201400-
WEST-CENTRAL ILLINOIS

CITY           SKY/WX    TMP DP  RH WIND       PRES   REMARKS
QUINCY         CLOUDY    52  51  97 SE13      29.97F FOG
GALESBURG*     FOG       50  50 100 SE6       30.02S VSB 1
MACOMB*        CLOUDY    51  51  99 SE10      30.04S FOG
JACKSONVILLE*  PTCLDY    49  48  97 SE9       30.03F FOG
PITTSFIELD*    CLOUDY    51  50  96 SE9       30.02R FOG
$$

ILZ028>032-037-038-041>044-048-051>054-059>061-201400-
CENTRAL ILLINOIS

CITY           SKY/WX    TMP DP  RH WIND       PRES   REMARKS
PONTIAC        FOG       45  45  99 SE9       30.12R VSB 1/2
BLOOMINGTON    LGT RAIN  47  47 100 SE12      30.11R VSB 1/4
DECATUR        FOG       49  48  97 SE13      30.09F VSB 1/2
PEORIA         FOG       48  48 100 SE7       30.07S VSB 1/4
LACON*         FOG       44  44 100 SE7       30.07S VSB 1/4
LINCOLN*       FOG       49  49 100 SE6       30.08S VSB 1
SPRINGFIELD    MOCLDY    51  50  96 SE13      30.05F FOG
TAYLORVILLE    MOCLDY    49  49 100 SE12      30.07F FOG
$$

ILZ033-039-045-046-055>057-062-063-201400-
EAST-CENTRAL ILLINOIS

CITY           SKY/WX    TMP DP  RH WIND       PRES   REMARKS
CHAMPAIGN      FOG       44  43  96 SE10      30.13S VSB 1/4
RANTOUL*       DRZL/FOG  46  45  99 SE8       30.14S VSB<1/4
MATTOON        FOG       45  45 100 SE8       30.12S VSB 1/4
PARIS*         FOG       42  42 100 SE8       30.16S VSB<1/4
$$

ILZ079-100>102-201400-
SOUTHWEST ILLINOIS

CITY           SKY/WX    TMP DP  RH WIND       PRES   REMARKS
ALTON          MOCLDY    48  48 100 SE10      30.05S FOG
BELLEVILLE     PTCLDY    49  49 100 E5        30.05S FOG
CAHOKIA*       CLOUDY    52  48  86 SE7       30.04S FOG
SPARTA*        PTCLDY    50  49  97 SE8       30.07S FOG
$$

ILZ064>066-069>071-074>076-080>082-084>086-088>090-092>094-201400-
SOUTH-CENTRAL ILLINOIS

CITY           SKY/WX    TMP DP  RH WIND       PRES   REMARKS
CARBONDALE     PTCLDY    50  50 100 E5        30.09R FOG
CAIRO*         CLOUDY    48  48 100 E3        30.09R FOG
EFFINGHAM*       N/A     46  46 100 E7        30.13S FOG
MARION         MOCLDY    50  50 100 SE8       30.10S
MT. VERNON     CLOUDY    49  48  97 CALM      30.11S FOG
CENTRALIA*     MOCLDY    50  49  99 E6        30.09R FOG
SALEM*         MOCLDY    50  48  94 SE7       30.10S FOG
METROPOLIS*    PTCLDY    50  50  98 CALM      30.11S FOG
$$

ILZ067-068-072-073-078-083-087-091-201400-
SOUTHEAST ILLINOIS

CITY           SKY/WX    TMP DP  RH WIND       PRES   REMARKS
LAWRENCEVILLE  FOG       41  41 100 E9        30.15F VSB 1/4
FLORA*         CLOUDY    47  46  99 SE7       30.12S FOG
FAIRFIELD*     CLOUDY    47  47 100 CALM      30.11S FOG
HARRISBURG*    CLOUDY    48  48  99 E6        30.12S FOG
ROBINSON*      FOG       41  41 100 E5        30.16F VSB 1/4
CARMI*         CLOUDY    44  44 100 SE7       30.13S FOG
$$

ABBREVIATIONS USED IN REMARKS
   TC - TEMPERATURE IN CELSIUS
  WCI - WIND CHILL INDEX
   HX - HEAT INDEX
  VSB - VISIBILITY
$$





USA.gov is the U.S. government's official web portal to all federal, state and local government web resources and services.